User: anonymous   Login
Location: ?
(35.4214°N, 139.3011°E)
Time: 16:14:16
(UTC+00:00)
Language:

Cosmos 1680 Rocket - Orbit

View from above orbital plane
View from above orbital plane
View from above satellite
View from above satellite

Ground track
Ground track

The orbit data is extracted from the following two-line orbital elements,

1 16012U 85079B   20270.98485525  .00000162  00000-0  64351-4 0  9998
2 16012  74.0575  98.0933 0014088  60.9585 299.2978 14.36334028835765
Epoch (UTC): 26 September 2020 23:38:11
Eccentricity: 0.0014088
inclination: 74.0575°
perigee height: 760 km
apogee height: 781 km
right ascension of ascending node: 98.0933°
argument of perigee: 60.9585°
revolutions per day: 14.36334028
mean anomaly at epoch: 299.2978°
orbit number at epoch: 83576

The dashed part of the orbit path shows where the satellite is in the earth's shadow,  

DLR